Weather History for Platteville, WI

Change the Weather History Date:

Tuesday, October 30, 2012

  Actual Average (KDBQ) Record (KDBQ)
Temperature  
Mean Temperature 39 °F 45 °F  
Max Temperature 46 °F 54 °F 82 °F (1950)
Min Temperature 32 °F 36 °F 10 °F (1925)
Degree Days  
Heating Degree Days 26 20  
Month to date heating degree days 450  
Since 1 July heating degree days 628  
Cooling Degree Days 0 0  
Month to date cooling degree days 4  
Year to date cooling degree days 641  
Moisture  
Dew Point 23 °F    
Average Humidity 58    
Maximum Humidity 80    
Minimum Humidity 37    
Precipitation  
Precipitation 0.00 in 0.09 in 1.39 in (1967)
Month to date precipitation 2.58  
Year to date precipitation 32.02  
Snow  
Snow 0.00 in 0.00 in - ()
Month to date snowfall 0.0  
Since 1 July snowfall 0.0  
Since 1 September snowfall 0.0  
Snow Depth -    
Sea Level Pressure  
Sea Level Pressure 30.01 in    
Wind  
Wind Speed 11 mph (NNW)    
Max Wind Speed 23 mph    
Max Gust Speed 29 mph    
Visibility 10 miles    
Events      
T = Trace of Precipitation, MM = Missing Value Source: NWS Daily Summary

Daily Weather History Graph

Daily Weather History Graph

Search for Another Location

Airport:

Trip Planner

Search our weather history database for the weather conditions in past years. The results will help you decide how hot, cold, wet, or windy it might be!

Date:

Astronomy

Oct. 30, 2012 Rise Set
Actual Time 7:33 AM CDT 5:56 PM CDT
Civil Twilight 7:04 AM CDT 6:25 PM CDT
Nautical Twilight 6:31 AM CDT 6:58 PM CDT
Astronomical Twilight 5:58 AM CDT 7:31 PM CDT
Moon 6:24 PM CDT (10/30) 8:22 AM CDT (10/30)
Length of Visible Light 11h 21m
Length of Day
10h 22m
Full, 99% of the Moon is Illuminated
Oct 30
Full
Nov 6
Last Quarter
Nov 13
New
Nov 20
First Quarter
Nov 28
Full

Hourly Weather History & Observations

Time (CDT) Temp. Windchill Dew Point Humidity Pressure Visibility Wind Dir Wind Speed Gust Speed Precip Events Conditions
12:15 AM 33.8 °F 27.0 °F 23.0 °F 65% 30.17 in 10.0 mi North 8.1 mph - N/A   Clear
12:35 AM 33.8 °F 27.0 °F 23.0 °F 65% 30.17 in 10.0 mi NNW 8.1 mph - N/A   Clear
12:55 AM 33.8 °F 28.6 °F 23.0 °F 65% 30.16 in 10.0 mi North 5.8 mph - N/A   Clear
1:15 AM 32.0 °F 26.4 °F 23.0 °F 69% 30.16 in 10.0 mi NNW 5.8 mph - N/A   Clear
1:35 AM 32.0 °F 25.6 °F 23.0 °F 69% 30.16 in 10.0 mi North 6.9 mph - N/A   Clear
1:55 AM 32.0 °F 25.6 °F 23.0 °F 69% 30.16 in 10.0 mi NNW 6.9 mph - N/A   Clear
2:15 AM 32.0 °F 24.8 °F 23.0 °F 69% 30.15 in 10.0 mi NNW 8.1 mph - N/A   Clear
2:55 AM 32.0 °F 25.6 °F 23.0 °F 69% 30.14 in 10.0 mi NNW 6.9 mph - N/A   Clear
3:15 AM 32.0 °F 25.6 °F 23.0 °F 69% 30.13 in 10.0 mi NNW 6.9 mph - N/A   Clear
3:35 AM 32.0 °F 25.6 °F 23.0 °F 69% 30.13 in 10.0 mi NNW 6.9 mph - N/A   Clear
3:55 AM 32.0 °F 24.8 °F 24.8 °F 75% 30.12 in 10.0 mi NNW 8.1 mph - N/A   Clear
4:15 AM 32.0 °F 25.6 °F 24.8 °F 75% 30.11 in 10.0 mi NNW 6.9 mph - N/A   Clear
4:35 AM 32.0 °F 26.4 °F 24.8 °F 75% 30.11 in 10.0 mi NNW 5.8 mph - N/A   Clear
4:55 AM 32.0 °F 25.6 °F 24.8 °F 75% 30.11 in 10.0 mi North 6.9 mph - N/A   Clear
5:15 AM 32.0 °F 24.8 °F 24.8 °F 75% 30.11 in 10.0 mi North 8.1 mph - N/A   Clear
5:35 AM 32.0 °F 24.8 °F 26.6 °F 80% 30.11 in 10.0 mi North 8.1 mph - N/A   Clear
5:55 AM 32.0 °F 23.6 °F 26.6 °F 80% 30.10 in 10.0 mi NNW 10.4 mph - N/A   Clear
6:15 AM 32.0 °F 24.2 °F 26.6 °F 80% 30.09 in 10.0 mi North 9.2 mph - N/A   Clear
6:35 AM 32.0 °F 23.6 °F 26.6 °F 80% 30.09 in 10.0 mi North 10.4 mph - N/A   Clear
6:55 AM 33.8 °F 25.8 °F 26.6 °F 75% 30.08 in 10.0 mi NNW 10.4 mph - N/A   Clear
7:15 AM 32.0 °F 24.2 °F 26.6 °F 80% 30.08 in 10.0 mi NNW 9.2 mph - N/A   Clear
7:35 AM 32.0 °F 23.0 °F 26.6 °F 80% 30.07 in 10.0 mi NNW 11.5 mph - N/A   Clear
7:55 AM 32.0 °F 22.5 °F 26.6 °F 80% 30.07 in 10.0 mi NNW 12.7 mph - N/A   Clear
8:15 AM 32.0 °F 23.0 °F 26.6 °F 80% 30.06 in 10.0 mi NNW 11.5 mph - N/A   Clear
8:35 AM 33.8 °F 25.3 °F 26.6 °F 75% 30.06 in 10.0 mi NNW 11.5 mph - N/A   Clear
8:55 AM 33.8 °F 24.3 °F 26.6 °F 75% 30.05 in 10.0 mi NNW 13.8 mph - N/A   Clear
9:15 AM 35.6 °F 27.1 °F 26.6 °F 70% 30.05 in 10.0 mi NNW 12.7 mph - N/A   Clear
9:35 AM 35.6 °F 26.2 °F 26.6 °F 70% 30.04 in 10.0 mi NNW 15.0 mph 21.9 mph N/A   Clear
9:55 AM 37.4 °F 28.2 °F 26.6 °F 65% 30.04 in 10.0 mi NNW 16.1 mph 23.0 mph N/A   Clear
10:15 AM 37.4 °F 27.5 °F 26.6 °F 65% 30.03 in 10.0 mi North 18.4 mph 24.2 mph N/A   Clear
10:35 AM 39.2 °F 28.7 °F 24.8 °F 56% 30.02 in 10.0 mi North 23.0 mph 28.8 mph N/A   Clear
10:55 AM 41.0 °F 31.6 °F 26.6 °F 57% 30.01 in 10.0 mi North 20.7 mph 26.5 mph N/A   Clear
11:15 AM 41.0 °F 33.1 °F 26.6 °F 57% 30.01 in 10.0 mi North 15.0 mph 25.3 mph N/A   Clear
11:35 AM 42.8 °F 34.0 °F 24.8 °F 49% 30.00 in 10.0 mi NNW 20.7 mph - N/A   Clear
11:55 AM 42.8 °F 36.6 °F 24.8 °F 49% 30.00 in 10.0 mi NNW 11.5 mph 23.0 mph N/A   Clear
12:15 PM 44.6 °F 37.2 °F 23.0 °F 43% 29.99 in 10.0 mi NNW 17.3 mph 24.2 mph N/A   Clear
12:35 PM 44.6 °F 37.4 °F 23.0 °F 43% 29.98 in 10.0 mi North 16.1 mph 21.9 mph N/A   Clear
12:55 PM 44.6 °F 36.9 °F 23.0 °F 43% 29.97 in 10.0 mi NNW 18.4 mph 21.9 mph N/A   Clear
1:15 PM 46.4 °F 39.8 °F 23.0 °F 40% 29.96 in 10.0 mi NNW 16.1 mph 24.2 mph N/A   Clear
1:35 PM 46.4 °F 40.4 °F 23.0 °F 40% 29.95 in 10.0 mi NNW 13.8 mph 23.0 mph N/A   Clear
1:55 PM 46.4 °F 39.2 °F 23.0 °F 40% 29.94 in 10.0 mi NNW 18.4 mph 24.2 mph N/A   Clear
2:15 PM 46.4 °F 38.7 °F 21.2 °F 37% 29.93 in 10.0 mi NNW 20.7 mph 24.2 mph N/A   Clear
2:35 PM 46.4 °F 39.5 °F 21.2 °F 37% 29.93 in 10.0 mi NNW 17.3 mph 24.2 mph N/A   Clear
2:55 PM 46.4 °F 39.0 °F 21.2 °F 37% 29.92 in 10.0 mi NW 19.6 mph 25.3 mph N/A   Clear
3:15 PM 46.4 °F 39.8 °F 21.2 °F 37% 29.92 in 10.0 mi NNW 16.1 mph 23.0 mph N/A   Clear
3:35 PM 46.4 °F 39.0 °F 21.2 °F 37% 29.92 in 10.0 mi NNW 19.6 mph 26.5 mph N/A   Clear
3:55 PM 46.4 °F 40.1 °F 21.2 °F 37% 29.92 in 10.0 mi NNW 15.0 mph 24.2 mph N/A   Clear
4:15 PM 46.4 °F 39.2 °F 21.2 °F 37% 29.92 in 10.0 mi NW 18.4 mph 23.0 mph N/A   Clear
4:35 PM 46.4 °F 40.1 °F 21.2 °F 37% 29.92 in 10.0 mi NW 15.0 mph 21.9 mph N/A   Clear
4:55 PM 46.4 °F 38.5 °F 21.2 °F 37% 29.92 in 10.0 mi NNW 21.9 mph 27.6 mph N/A   Clear
5:15 PM 44.6 °F 36.9 °F 21.2 °F 39% 29.92 in 10.0 mi NNW 18.4 mph 25.3 mph N/A   Clear
5:35 PM 44.6 °F 37.4 °F 21.2 °F 39% 29.92 in 10.0 mi NNW 16.1 mph 21.9 mph N/A   Clear
5:55 PM 42.8 °F 36.6 °F 21.2 °F 42% 29.93 in 10.0 mi NNW 11.5 mph - N/A   Clear
6:15 PM 42.8 °F 36.2 °F 21.2 °F 42% 29.94 in 10.0 mi NNW 12.7 mph 18.4 mph N/A   Clear
6:35 PM 41.0 °F 33.5 °F 21.2 °F 45% 29.94 in 10.0 mi NNW 13.8 mph - N/A   Clear
6:55 PM 41.0 °F 34.3 °F 21.2 °F 45% 29.94 in 10.0 mi NNW 11.5 mph 17.3 mph N/A   Clear
7:15 PM 41.0 °F 33.9 °F 21.2 °F 45% 29.94 in 10.0 mi NNW 12.7 mph - N/A   Clear
7:55 PM 39.2 °F 32.5 °F 21.2 °F 49% 29.94 in 10.0 mi NNW 10.4 mph - N/A   Clear
8:15 PM 37.4 °F 30.8 °F 21.2 °F 52% 29.92 in 10.0 mi North 9.2 mph - N/A   Clear
8:35 PM 37.4 °F 29.8 °F 21.2 °F 52% 29.93 in 10.0 mi NNW 11.5 mph - N/A   Clear
8:55 PM 37.4 °F 29.3 °F 21.2 °F 52% 29.94 in 10.0 mi NNW 12.7 mph 17.3 mph N/A   Clear
9:15 PM 37.4 °F 29.8 °F 21.2 °F 52% 29.93 in 10.0 mi NNW 11.5 mph 16.1 mph N/A   Clear
9:35 PM 37.4 °F 29.8 °F 21.2 °F 52% 29.92 in 10.0 mi NNW 11.5 mph - N/A   Clear
9:55 PM 35.6 °F 27.1 °F 21.2 °F 56% 29.92 in 10.0 mi NNW 12.7 mph - N/A   Clear
10:15 PM 35.6 °F 26.6 °F 23.0 °F 60% 29.92 in 10.0 mi NNW 13.8 mph - N/A   Clear
10:35 PM 35.6 °F 26.6 °F 23.0 °F 60% 29.91 in 10.0 mi North 13.8 mph 19.6 mph N/A   Clear
10:55 PM 35.6 °F 25.9 °F 23.0 °F 60% 29.91 in 10.0 mi North 16.1 mph 23.0 mph N/A   Clear
11:15 PM 33.8 °F 24.3 °F 23.0 °F 65% 29.90 in 10.0 mi North 13.8 mph - N/A   Clear
11:35 PM 33.8 °F 24.8 °F 23.0 °F 65% 29.92 in 10.0 mi NNW 12.7 mph - N/A   Clear
11:55 PM 33.8 °F 25.3 °F 23.0 °F 65% 29.91 in 10.0 mi NNW 11.5 mph - N/A   Clear